Change the Weather History Date:

Saturday, September 15, 2012

  Actual Average Record
Temperature  
Mean Temperature 75 °F -  
Max Temperature 86 °F 80 °F 91 °F (2008)
Min Temperature 64 °F 63 °F 57 °F (1996)
Cooling Degree Days 10    
Growing Degree Days 25 (Base 50)    
Moisture  
Dew Point 65 °F    
Average Humidity 84    
Maximum Humidity 100    
Minimum Humidity 44    
Precipitation  
Precipitation 0.01 in - - ()
Sea Level Pressure  
Sea Level Pressure 30.14 in    
Wind  
Wind Speed 2 mph (North)    
Max Wind Speed 8 mph    
Max Gust Speed -    
Visibility 5 miles    
Events Fog    
Averages and records for this station are not official NWS values.
T = Trace of Precipitation, MM = Missing Value Source: NWS Daily Summary

Daily Weather History Graph

Daily Weather History Graph

Search for Another Location

Airport or City:

Trip Planner

Search our weather history database for the weather conditions in past years. The results will help you decide how hot, cold, wet, or windy it might be!

Date:

Astronomy

Sep. 15, 2012 Rise Set
Actual Time 6:53 AM EDT 7:15 PM EDT
Civil Twilight 6:27 AM EDT 7:41 PM EDT
Nautical Twilight 5:58 AM EDT 8:10 PM EDT
Astronomical Twilight 5:28 AM EDT 8:40 PM EDT
Moon 6:20 AM EDT (9/15) 6:47 PM EDT (9/15)
Length of Visible Light 13h 13m
Length of Day
12h 22m
Waning Crescent, 0% of the Moon is Illuminated
Sep 15
Waning Crescent
Sep 15
New
Sep 22
First Quarter
Sep 29
Full
Oct 8
Last Quarter

Hourly Weather History & Observations

Time (EDT) Temp. Heat Index Dew Point Humidity Pressure Visibility Wind Dir Wind Speed Gust Speed Precip Events Conditions
12:56 AM 68.0 °F - 66.0 °F 93% 30.14 in 10.0 mi Calm Calm - N/A   Clear
1:56 AM 66.9 °F - 66.0 °F 97% 30.14 in 10.0 mi Calm Calm - N/A   Clear
2:56 AM 66.9 °F - 64.9 °F 93% 30.13 in 10.0 mi NNW 3.5 mph - N/A   Clear
3:45 AM 64.4 °F - 64.4 °F 100% 30.12 in 1.8 mi Calm Calm - N/A   Clear
4:10 AM 64.4 °F - 62.6 °F 94% 30.12 in 2.5 mi Calm Calm - N/A   Mostly Cloudy
4:18 AM 64.4 °F - 62.6 °F 94% 30.12 in 1.0 mi Calm Calm - N/A   Mostly Cloudy
4:21 AM 64.4 °F - 62.6 °F 94% 30.12 in 0.5 mi NW 3.5 mph - N/A Fog Fog
4:34 AM 66.2 °F - 64.4 °F 94% 30.12 in 0.2 mi Calm Calm - N/A Fog Fog
4:41 AM 66.2 °F - 64.4 °F 94% 30.12 in 0.2 mi Calm Calm - N/A Fog Fog
4:56 AM 64.9 °F - 64.0 °F 97% 30.13 in 0.8 mi Calm Calm - N/A   Mist
5:03 AM 64.4 °F - 64.4 °F 100% 30.12 in 0.5 mi Calm Calm - N/A Fog Fog
5:25 AM 66.2 °F - 64.4 °F 94% 30.13 in 0.8 mi North 3.5 mph - N/A   Mist
5:33 AM 66.2 °F - 64.4 °F 94% 30.13 in 1.2 mi Calm Calm - 0.01 in   Overcast
5:43 AM 66.2 °F - 64.4 °F 94% 30.13 in 1.0 mi NNW 3.5 mph - 0.01 in   Mist
5:53 AM 66.2 °F - 64.4 °F 94% 30.13 in 1.5 mi North 4.6 mph - 0.01 in   Overcast
5:56 AM 66.0 °F - 64.0 °F 93% 30.14 in 1.5 mi North 4.6 mph - 0.01 in   Overcast
6:13 AM 64.4 °F - 64.4 °F 100% 30.14 in 0.8 mi NNW 4.6 mph - N/A   Mist
6:22 AM 64.4 °F - 64.4 °F 100% 30.14 in 0.5 mi NNW 4.6 mph - N/A Fog Fog
6:27 AM 64.4 °F - 64.4 °F 100% 30.14 in 0.2 mi NNW 3.5 mph - N/A Fog Fog
6:56 AM 64.9 °F - 64.0 °F 97% 30.15 in 0.2 mi Calm Calm - N/A Fog Fog
7:09 AM 64.4 °F - 64.4 °F 100% 30.14 in 0.2 mi Calm Calm - N/A Fog Fog
7:56 AM 66.0 °F - 64.9 °F 96% 30.16 in 0.2 mi North 3.5 mph - N/A Fog Fog
8:17 AM 66.2 °F - 66.2 °F 100% 30.15 in 0.2 mi North 4.6 mph - N/A Fog Fog
8:56 AM 68.0 °F - 66.9 °F 96% 30.18 in 0.5 mi North 4.6 mph - N/A Fog Fog
9:01 AM 68.0 °F - 66.2 °F 94% 30.17 in 1.0 mi NW 3.5 mph - N/A   Mist
9:15 AM 68.0 °F - 66.2 °F 94% 30.17 in 2.0 mi North 5.8 mph - N/A   Overcast
9:25 AM 69.8 °F - 66.2 °F 88% 30.17 in 7.0 mi North 4.6 mph - N/A   Overcast
9:47 AM 69.8 °F - 66.2 °F 88% 30.17 in 10.0 mi North 4.6 mph - N/A   Overcast
9:56 AM 72.0 °F - 68.0 °F 87% 30.18 in 10.0 mi North 3.5 mph - N/A   Overcast
10:15 AM 73.4 °F - 66.2 °F 78% 30.17 in 10.0 mi North 4.6 mph - N/A   Scattered Clouds
10:56 AM 77.0 °F - 66.0 °F 69% 30.18 in 10.0 mi North 5.8 mph - N/A   Clear
11:56 AM 82.0 °F 83.4 °F 64.0 °F 54% 30.16 in 10.0 mi Variable 5.8 mph - N/A   Clear
12:56 PM 84.0 °F 84.5 °F 62.1 °F 47% 30.15 in 10.0 mi NNE 8.1 mph - N/A   Partly Cloudy
1:56 PM 84.0 °F 84.4 °F 61.0 °F 46% 30.13 in 10.0 mi ENE 5.8 mph - N/A   Partly Cloudy
2:56 PM 84.0 °F 84.4 °F 61.0 °F 46% 30.11 in 10.0 mi NNW 4.6 mph - N/A   Clear
3:56 PM 86.0 °F 86.3 °F 62.1 °F 44% 30.10 in 10.0 mi North 6.9 mph - N/A   Clear
4:56 PM 82.9 °F 83.7 °F 62.1 °F 49% 30.09 in 10.0 mi NE 6.9 mph - N/A   Scattered Clouds
5:56 PM 82.0 °F 83.1 °F 63.0 °F 52% 30.09 in 10.0 mi NE 6.9 mph - N/A   Clear
6:56 PM 78.1 °F - 66.0 °F 66% 30.11 in 10.0 mi SSW 4.6 mph - N/A   Scattered Clouds
7:56 PM 75.0 °F - 66.9 °F 76% 30.12 in 10.0 mi Calm Calm - N/A   Overcast
8:56 PM 75.9 °F - 66.0 °F 71% 30.14 in 10.0 mi NNE 6.9 mph - N/A   Mostly Cloudy
9:56 PM 73.9 °F - 66.0 °F 76% 30.14 in 10.0 mi NE 8.1 mph - N/A   Partly Cloudy
10:56 PM 71.1 °F - 64.9 °F 81% 30.15 in 10.0 mi NNE 4.6 mph - N/A   Clear
11:56 PM 71.1 °F - 64.0 °F 78% 30.15 in 10.0 mi NE 8.1 mph - N/A   Clear